sat.trackr.live / text

‹ back to catalog

STARLINK-11081 [DTC]

NORAD 60405 · 2024-141H

PAYLOAD ACTIVE UNKNOWN

§ Identity

Operator
Country
US
Launch date
2024-08-10
Launch site
AFETR
Launch vehicle
Mass (kg)
RCS (m²)

Purposes: comms

External: N2YO · Heavens-Above · Gunter

§ Orbital elements

Epoch: 2026-09-21T02:47:50.897184Z

Period
91.74 min
Inclination
53.1619°
Eccentricity
0.0001262
Mean motion
15.69710615 rev/d
Perigee alt
358.9 km
Apogee alt
360.6 km
Semi-major
6,737.9 km
B*
5.9372e-6
RAAN
203.1157°
Arg perigee
84.4088°
Mean anomaly
275.7074°
Rev number
12,238

§ Raw data

STARLINK-11081 [DTC]1 60405U 24141H   26264.11656131  .00000130  00000+0  59372-5 0  99952 60405  53.1619 203.1157 0001262  84.4088 275.7074 15.69710615122383

JSON: /api/v1/satellites/60405 · /tle

For live sub-satellite position, see the globe view (requires WebGL).

§ Visibility from observer

Set your observer location to see the next 7 days of passes ≥ 10°. The values pass through the URL so the page stays shareable.

No JS? Fill the form by hand. The geolocation button needs JavaScript.